Location: Zapote
(9.9191°N, 84.0597°W)
Time: 17:12:37
(UTC-06:00)

Transit 2A - Pass Details

Date: 04 March 2021
Orbit: 602 x 957 km, 66.7° (Epoch: 16 April)

Event Time Altitude Azimuth Distance (km) Brightness Sun altitude
Rises 05:18:04 0° 302° (WNW) 2,892 - -8.4°
Exits shadow 05:21:31 - 272° (W) 2,112 7.6 -7.5°
Reaches altitude 10° 05:22:08 10° 265° (W) 2,048 7.6 -7.4°
Maximum altitude 05:23:17 11° 250° (WSW) 2,012 7.6 -7.1°
Drops below altitude 10° 05:24:28 10° 235° (SW) 2,091 7.8 -6.8°
Sets 05:28:50 0° 199° (SSW) 3,102 9.0 -5.8°
